Ubon Ratchathani, Thailand

10:14 AM ICT on August 24, 2016 (GMT +0700)
Ubon Ratchathani

Weather History for VTUU - September, 2013

Change the Weather History Date:

Thursday, September 19, 2013

  Actual Average Record
Temperature  
Mean Temperature 78 °F -  
Max Temperature 82 °F 88 °F - ()
Min Temperature 73 °F 73 °F - ()
Cooling Degree Days 12    
Growing Degree Days 28 (Base 50)    
Moisture  
Dew Point 75 °F    
Average Humidity 95    
Maximum Humidity 100    
Minimum Humidity 83    
Precipitation  
Precipitation 2.17 in 0.23 in - ()
Sea Level Pressure  
Sea Level Pressure 29.51 in    
Wind  
Wind Speed 8 mph ()    
Max Wind Speed 14 mph    
Max Gust Speed -    
Visibility 4.3 miles    
Events Rain    
T = Trace of Precipitation, MM = Missing Value Source: Averaged Metar Reports

Daily Weather History Graph

Daily Weather History Graph

Search for Another Location

Airport or City:

Trip Planner

Search our weather history database for the weather conditions in past years. The results will help you decide how hot, cold, wet, or windy it might be!

Date:

Astronomy

Sep. 19, 2013 Rise Set
Actual Time 5:49 AM ICT 5:59 PM ICT
Civil Twilight 5:27 AM ICT 6:20 PM ICT
Nautical Twilight 5:02 AM ICT 6:45 PM ICT
Astronomical Twilight 4:37 AM ICT 7:10 PM ICT
Moon 5:45 PM ICT (9/19) 5:20 AM ICT (9/19)
Length of Visible Light 12h 52m
Length of Day
12h 09m
Full, 100% of the Moon is Illuminated
Sep 19
Full
Sep 19
Full
Sep 27
Last Quarter
Oct 5
New
Oct 12
First Quarter

Hourly Weather History & Observations

Time (ICT) Temp. Heat Index Dew Point Humidity Pressure Visibility Wind Dir Wind Speed Gust Speed Precip Events Conditions
1:00 AM 75 °F - 75 °F 100% 29.62 in 3 mi West 8.1 mph - - Rain Rain
1:00 AM 75.2 °F - 75.2 °F 100% 29.59 in 3.1 mi West 8.1 mph - N/A Rain Rain
2:00 AM 75.2 °F - 75.2 °F 100% 29.56 in 3.1 mi WSW 8.1 mph - N/A Rain Light Rain
4:00 AM 75.2 °F - 75.2 °F 100% 29.53 in 3.1 mi West 8.1 mph - N/A Rain Light Rain
5:00 AM 73.4 °F - 73.4 °F 100% 29.50 in 3.1 mi West 11.5 mph - N/A Rain Light Rain
6:00 AM 75.2 °F - 75.2 °F 100% 29.50 in 2.5 mi West 10.4 mph - N/A Rain Light Rain
6:30 AM 75.2 °F - 75.2 °F 100% 29.50 in 1.2 mi WSW 13.8 mph - N/A Rain Light Rain
7:00 AM 75 °F - 75 °F 99% 29.52 in 2 mi West 13.8 mph - - Rain Rain
7:00 AM 75.2 °F - 75.2 °F 100% 29.50 in 1.9 mi West 13.8 mph - N/A Rain Rain
11:00 AM 78.8 °F - 77.0 °F 94% 29.53 in 6.2 mi North 3.5 mph - N/A   Overcast
12:00 PM 77.0 °F - 75.2 °F 94% 29.50 in 6.2 mi NNW 3.5 mph - N/A   Overcast
1:00 PM 79 °F - 77 °F 90% 29.49 in 6 mi North 6.9 mph - - Rain Light Rain
1:00 PM 78.8 °F - 77.0 °F 94% 29.47 in 5.0 mi North 6.9 mph - N/A Rain Light Rain
2:00 PM 78.8 °F - 77.0 °F 94% 29.47 in 5.6 mi NE 8.1 mph - N/A   Overcast
3:00 PM 80.6 °F 87.1 °F 77.0 °F 89% 29.44 in 6.2 mi NE 12.7 mph - N/A   Overcast
4:00 PM 78.8 °F - 73.4 °F 83% 29.44 in 6.2 mi NE 9.2 mph - N/A   Overcast
5:30 PM 77.0 °F - 75.2 °F 94% 29.44 in 5.6 mi East 5.8 mph - N/A   Mostly Cloudy
6:00 PM 77.0 °F - 75.2 °F 94% 29.47 in 5.6 mi ENE 6.9 mph - N/A   Mostly Cloudy
7:00 PM 75 °F - 74 °F 94% 29.51 in 5 mi East 6.9 mph - - Rain Light Rain
7:00 PM 75.2 °F - 73.4 °F 94% 29.50 in 5.0 mi East 6.9 mph - N/A Rain Light Rain
8:00 PM 75.2 °F - 73.4 °F 94% 29.50 in 5.6 mi ENE 9.2 mph - N/A   Mostly Cloudy
9:00 PM 75.2 °F - 73.4 °F 94% 29.56 in 4.3 mi NNE 5.8 mph - N/A   Light Drizzle
10:00 PM 75.2 °F - 73.4 °F 94% 29.56 in 3.7 mi East 5.8 mph - N/A   Light Drizzle